Retour au catalogue

FENGYUN 1C DEB

ActifSSO
NORAD 31467·DEBRIS·🇨🇳 China

Lancé May 10, 1999 depuis Taiyuan Satellite Launch Center

Loading…

Prochains Passages (prochaines 24 heures)

TLE

FraisSource: Space-Track

Époque: Sep 14, 2026, 09:19 UTC

1 31467U 99025BVF 26257.38873025  .00002047  00000-0  12540-2 0  9991
2 31467  98.5802 114.1092 0152238 310.8050  47.9993 14.01293934 36063

Suivez FENGYUN 1C DEB en temps réel avec AllMySat

Download on the App Store